Location: El Para�so
(10.4896°N, 66.9245°W)
Time: 20:25:05
(UTC+00:00)

Cosmos 1331 Rocket - Pass Details

Date: 08 August 2020
Orbit: 750 x 777 km, 74.0° (Epoch: 01 October)

Event Time Altitude Azimuth Distance (km) Brightness Sun altitude
Rises 23:38:08 0° 350° (N) 3,215 7.6 -12.4°
Reaches altitude 10° 23:40:31 10° 352° (N) 2,286 6.8 -13.0°
Maximum altitude 23:45:41 75° 77° (ENE) 784 3.9 -14.2°
Drops below altitude 10° 23:50:50 10° 162° (SSE) 2,271 6.1 -15.4°
Enters shadow 23:51:18 - 163° (SSE) 2,454 6.3 -15.5°
